Theta_e
312 313 316 317 318 320 322 321 319 318 318 319 320 320 317 316 316 316 317 317 318 318 315 319 320 320 322 321 320 323 329 332 332 332 333 333 334 335 337 336 335 335 334 333 331 331 333 332 331 329 329 328 326 327 332 334 334 333 334 330 327 325 323 320 317 316 316 316 316 315 316 317 320 324 325 325 324 323 324 320 318 316 315 319 321 321
312 314 317 319 321 323 324 326 324 321 323 324 321 318 316 317 317 317 320 320 323 327 319 320 324 320 323 324 321 326 332 332 332 331 332 332 332 334 336 337 337 336 333 333 332 331 333 333 332 330 329 328 327 332 335 334 333 333 331 321 316 317 317 315 314 313 314 315 314 316 319 320 321 322 323 324 324 324 322 315 313 313 311 317 320 319
315 317 318 319 320 320 322 326 327 325 324 322 319 318 318 318 318 320 328 325 326 329 320 320 325 322 327 327 322 327 332 331 331 331 331 331 331 331 333 335 336 335 332 332 332 332 333 333 333 333 332 330 331 335 336 334 333 330 323 314 311 312 312 314 313 312 313 315 317 319 321 321 321 322 323 323 323 323 317 309 310 312 311 315 317 316
316 319 318 317 317 319 322 324 329 331 327 324 319 316 318 318 317 319 329 331 328 326 321 323 328 327 330 329 322 323 327 329 331 331 331 331 330 329 330 332 333 332 331 330 330 331 331 331 333 335 335 334 335 335 335 334 329 322 316 313 312 312 312 313 314 314 316 318 320 322 321 320 318 319 321 320 318 315 310 308 311 314 315 316 315 315
315 318 317 318 320 322 321 320 330 331 326 333 329 317 318 319 317 318 325 333 333 333 331 328 329 332 331 325 322 321 323 328 329 329 329 329 330 329 328 330 330 330 330 328 328 329 331 332 334 336 336 336 336 335 335 332 322 314 313 313 312 312 313 314 317 319 319 319 321 321 321 319 317 318 316 312 311 309 308 309 312 316 318 318 318 318
315 314 315 321 323 321 320 319 329 330 322 329 335 327 322 320 321 323 328 334 332 330 332 326 324 336 338 327 325 324 324 327 328 328 329 328 329 329 329 329 329 329 329 328 330 331 334 335 335 336 336 336 336 335 335 330 318 312 312 312 312 313 314 317 320 322 320 319 319 319 319 319 317 316 312 308 307 307 308 310 313 317 319 319 319 320
318 315 316 324 326 323 322 319 323 330 323 318 330 336 328 325 326 326 328 328 325 324 328 327 324 332 335 329 329 326 323 325 323 325 328 326 328 330 329 329 328 330 330 332 333 334 335 335 334 336 336 336 336 335 335 328 316 312 312 312 313 314 316 317 319 321 320 319 318 317 317 317 314 311 309 307 308 307 308 309 311 314 316 317 317 316
320 319 318 323 327 323 321 320 323 329 322 319 332 334 325 325 326 327 326 321 322 325 328 334 328 322 326 328 328 323 319 323 322 322 325 324 326 330 329 330 330 331 332 334 335 335 335 335 333 335 336 336 335 335 335 329 318 313 313 313 313 315 316 315 316 319 319 319 318 317 318 317 312 309 308 308 307 307 307 307 308 309 310 311 311 310
324 320 320 323 323 319 320 326 327 324 319 324 335 327 320 322 323 328 327 321 326 322 323 338 329 318 328 335 330 324 321 324 324 322 322 322 325 329 330 331 331 332 333 334 334 334 335 335 335 335 336 335 335 335 334 329 322 317 316 314 314 316 317 315 315 318 319 320 319 318 320 318 311 308 308 307 307 307 307 306 307 307 307 307 307 306
322 318 321 323 321 322 327 328 326 323 321 326 329 323 322 325 325 327 323 324 333 324 325 338 327 316 330 339 334 327 322 323 325 322 321 322 325 328 330 330 330 331 333 334 334 333 334 335 335 335 335 336 336 335 333 331 328 325 323 318 314 314 317 317 317 319 321 321 320 319 319 315 309 308 309 308 308 307 307 307 307 306 307 307 306 306
318 315 318 320 320 324 326 321 319 319 319 322 324 324 324 327 331 334 330 326 326 325 329 333 325 320 328 335 336 328 319 321 326 325 321 323 326 328 329 329 329 330 332 333 333 333 333 334 334 334 335 336 335 333 330 330 331 330 328 322 316 313 315 319 321 322 323 322 320 319 315 310 309 309 309 308 308 308 307 307 307 307 307 307 307 307
322 317 316 318 317 318 318 316 315 315 318 320 322 324 325 328 332 338 337 327 320 327 334 329 323 323 326 330 331 327 322 322 325 324 323 325 326 327 328 328 329 329 330 330 332 332 333 332 332 332 332 334 333 330 328 330 331 330 329 327 322 316 316 322 325 324 324 322 318 314 311 309 309 309 308 309 309 308 308 307 307 307 307 307 307 307
330 323 318 317 315 315 314 316 316 317 321 320 322 325 323 322 326 332 333 326 323 329 331 328 324 322 327 330 326 324 323 321 321 319 320 323 323 325 328 328 329 329 329 329 330 331 330 329 329 328 329 331 330 329 329 331 331 331 332 332 330 324 319 322 326 326 324 319 313 310 311 311 310 308 309 309 309 309 309 308 308 307 307 307 307 307
329 329 324 318 318 316 314 317 317 318 320 316 318 323 323 322 323 327 327 323 325 329 328 329 326 323 326 329 326 323 320 318 318 317 320 321 322 325 326 327 328 329 329 329 328 328 327 327 326 326 327 328 327 327 329 331 333 334 333 332 331 329 325 325 325 325 322 315 309 311 314 315 313 312 310 308 309 310 309 309 309 308 308 307 307 307
323 328 328 321 319 317 314 317 318 320 320 317 318 318 320 325 326 326 327 325 326 327 326 325 324 324 325 326 328 323 317 318 319 320 323 323 324 326 326 326 327 328 329 329 328 328 327 327 327 326 326 326 326 326 328 333 335 333 331 331 330 328 327 327 325 323 320 313 310 313 317 318 318 317 313 309 309 309 309 310 310 310 309 308 308 308
316 322 328 320 316 316 314 314 316 318 319 319 317 315 316 324 329 325 324 330 332 326 323 323 324 328 326 326 327 321 318 322 322 322 325 324 325 326 326 327 327 327 329 329 329 328 328 328 328 327 327 326 327 328 331 335 335 331 328 329 330 327 326 327 326 325 320 312 310 314 318 320 320 320 317 312 310 310 309 311 311 311 312 311 310 309
315 320 324 317 314 316 314 313 313 313 319 321 315 315 318 318 324 325 320 327 329 323 324 323 321 325 324 323 323 319 321 323 322 324 325 324 326 325 326 327 326 326 326 326 328 327 328 328 328 328 328 327 328 328 330 334 334 331 328 327 328 327 326 326 326 325 320 312 310 314 319 320 319 320 319 315 313 312 311 313 314 314 315 314 313 312
321 322 321 316 314 316 313 313 316 312 316 320 314 317 321 315 322 330 324 323 320 320 326 323 320 324 323 325 325 320 321 321 322 324 324 324 326 325 326 327 325 325 324 325 326 326 327 328 328 328 328 328 329 329 329 331 331 331 330 328 328 326 325 326 326 324 320 314 311 313 319 319 318 319 320 317 316 315 313 314 316 316 316 316 316 315
323 321 321 319 313 314 314 313 318 317 314 316 314 316 318 316 321 325 322 322 319 318 322 320 320 322 320 323 324 320 320 322 322 324 324 324 325 324 325 326 326 326 325 325 326 326 326 326 326 328 328 328 329 329 329 329 329 330 329 329 328 326 325 326 325 324 320 316 312 314 318 319 318 319 320 319 319 317 316 316 318 318 317 317 317 317
322 318 321 322 313 314 320 318 318 318 315 316 318 317 319 322 324 320 319 323 321 318 319 320 321 323 323 326 323 318 319 321 323 324 324 323 323 324 324 325 326 325 325 325 325 326 326 326 326 326 327 327 328 328 328 328 328 328 328 327 327 326 326 326 326 324 321 317 314 317 320 320 319 320 320 320 320 320 318 318 319 319 319 318 317 317
321 316 320 325 319 316 319 317 313 313 314 317 321 319 319 321 320 319 319 321 322 321 322 322 320 325 333 332 324 321 321 321 323 324 323 321 322 324 325 325 326 325 325 325 325 325 325 325 326 326 326 327 326 327 327 327 327 327 327 327 326 326 325 325 326 325 322 318 316 320 322 320 320 321 320 319 320 321 320 319 319 319 320 319 318 318
320 319 321 324 321 318 317 314 311 312 312 315 321 322 321 322 321 319 319 321 324 324 324 325 323 328 336 330 322 323 323 322 322 322 321 321 322 323 324 324 324 324 325 325 324 324 323 323 324 325 326 326 326 326 326 326 327 326 326 326 325 325 324 324 325 324 322 318 316 319 323 321 321 321 319 318 319 320 320 320 319 319 320 320 319 319
322 327 324 319 317 314 312 311 310 311 312 314 318 319 321 325 328 326 325 326 323 318 323 327 324 328 334 327 321 320 319 319 319 319 319 319 321 323 323 323 322 322 323 323 323 323 322 322 322 323 324 324 324 325 325 325 326 325 325 325 325 325 324 324 324 324 322 317 313 317 322 322 321 321 321 321 320 320 320 321 320 320 320 320 320 320
322 324 318 318 323 321 315 314 313 312 314 316 317 318 317 318 327 330 329 331 324 315 320 323 319 325 331 324 318 317 316 318 318 318 318 318 320 323 323 323 322 322 323 323 322 322 321 321 321 322 322 322 323 323 324 324 324 325 325 324 324 324 323 323 323 323 323 318 315 319 321 322 322 322 322 322 322 320 321 321 320 320 321 320 320 320
318 320 320 323 326 323 321 322 318 313 314 315 314 317 315 315 324 325 321 327 324 315 321 325 319 322 326 320 317 317 318 318 317 317 318 318 319 321 322 322 321 322 323 322 322 322 322 322 321 320 321 321 321 322 322 323 323 324 324 324 324 323 323 322 321 322 322 318 319 322 322 322 323 322 322 323 322 321 321 320 320 320 321 320 320 320
319 323 331 332 323 319 321 322 317 311 312 315 314 314 315 316 320 320 319 327 324 315 321 327 323 323 323 317 317 320 320 320 317 317 317 318 318 319 319 318 318 319 319 319 319 319 319 320 320 320 320 321 321 321 322 322 322 323 324 324 323 323 322 322 320 321 321 320 321 322 321 322 322 322 322 323 322 321 321 319 318 319 320 319 319 320
322 322 329 335 328 323 323 319 313 310 310 314 313 312 315 317 319 321 322 325 324 318 320 324 323 321 317 314 316 318 319 321 318 316 316 317 317 317 317 316 316 317 317 317 316 315 315 316 316 316 317 317 316 317 319 320 320 322 322 323 323 323 323 322 322 322 322 322 322 321 319 320 320 321 322 322 322 321 321 320 320 321 320 319 319 320
325 318 317 324 323 317 316 312 310 309 309 309 311 312 315 318 319 319 316 316 319 320 318 319 322 319 313 312 316 317 318 320 318 315 316 316 317 316 316 316 316 317 317 317 317 315 314 314 313 313 313 312 312 312 315 316 317 318 319 319 320 321 321 322 322 322 322 322 322 322 320 319 319 321 321 321 320 320 321 321 321 321 320 319 320 320
325 318 311 314 314 312 313 311 310 311 309 309 312 313 315 318 317 315 313 313 318 320 318 318 318 317 313 312 314 313 314 316 315 314 316 315 315 316 315 315 315 315 316 316 316 316 315 314 314 313 313 312 311 311 311 312 313 314 315 315 315 316 317 318 319 319 319 319 318 318 318 318 318 318 319 319 319 319 320 320 319 319 319 319 319 319
320 318 313 315 317 314 313 311 310 311 311 311 313 313 314 316 316 314 313 314 317 318 317 317 316 314 311 311 311 310 309 310 311 312 313 312 313 314 314 314 314 314 314 314 314 314 314 314 314 314 313 313 312 311 310 310 310 310 311 312 311 312 312 313 314 314 314 313 312 312 313 313 313 312 312 314 315 316 316 315 315 316 316 316 316 315
316 314 314 322 322 316 314 313 311 312 312 313 314 315 316 316 315 315 315 316 319 314 311 314 316 313 310 309 309 308 307 308 309 309 309 310 310 312 312 313 314 314 314 313 313 312 312 312 313 313 312 312 311 311 310 310 310 309 308 308 309 309 309 309 310 310 310 310 309 309 309 309 309 309 309 310 311 311 311 311 312 312 312 312 312 313
319 315 315 323 321 315 314 314 313 314 316 317 316 314 316 315 312 312 312 314 316 314 312 315 315 313 311 308 306 307 307 307 307 307 308 309 310 311 311 311 312 314 314 314 312 312 311 311 311 311 311 311 310 310 310 310 310 309 308 307 307 307 307 307 307 308 309 309 309 308 308 308 309 309 309 309 309 309 310 310 310 310 310 311 311 311
322 320 317 320 320 315 313 314 317 318 317 318 316 311 311 312 310 310 309 309 311 313 314 315 311 309 309 307 306 306 305 305 306 306 307 308 309 310 311 311 312 313 314 314 313 312 311 311 311 310 310 310 310 310 310 310 309 309 309 308 306 305 305 306 306 306 307 308 307 308 308 308 308 308 308 308 308 309 309 309 310 310 310 310 310 311
319 321 318 318 318 313 312 316 319 316 313 314 313 310 309 309 309 308 307 306 307 309 310 309 307 306 307 306 306 306 305 305 305 305 306 308 309 310 310 311 312 312 313 313 312 311 311 311 310 310 309 309 309 309 309 309 308 308 308 307 306 306 306 306 307 307 307 307 307 307 307 307 307 307 307 308 308 308 308 307 307 307 307 307 307 308
316 317 314 316 319 314 312 316 316 312 311 311 310 308 307 306 305 306 305 305 306 307 307 307 306 306 305 304 305 305 304 304 304 304 305 306 307 308 309 309 310 311 311 311 311 310 309 309 309 309 308 308 308 308 308 308 308 307 307 307 307 307 307 306 307 307 307 307 307 307 307 306 306 307 307 308 308 308 307 307 306 304 303 303 304 304
316 317 313 313 316 313 310 313 314 310 309 310 310 309 307 307 309 309 306 304 305 306 306 306 305 303 302 303 304 305 305 304 304 304 304 304 305 305 306 307 308 309 310 310 310 309 308 308 308 308 308 308 307 307 307 308 308 307 308 308 308 308 307 307 307 307 307 307 307 307 307 307 307 307 308 308 308 308 307 307 305 303 302 302 302 302
314 317 314 310 312 313 312 311 312 310 307 308 311 308 306 307 309 310 308 304 303 303 303 304 305 302 301 302 304 304 304 304 304 303 303 303 303 303 304 305 306 306 307 307 308 309 308 308 308 308 308 308 307 307 306 307 307 307 308 308 308 307 307 307 307 307 306 306 307 307 307 306 306 307 307 308 308 308 307 307 306 305 305 304 303 303
309 312 312 309 310 315 315 311 310 309 307 308 308 306 304 304 304 307 309 306 303 302 301 302 304 302 300 302 303 303 304 306 305 304 302 302 303 303 303 303 303 304 304 304 305 306 306 307 307 307 307 308 307 307 306 306 306 306 306 307 307 307 307 307 307 306 306 306 306 306 306 306 306 306 307 307 307 307 307 307 307 307 307 306 306 306
309 311 314 313 310 312 314 312 310 309 308 307 306 305 304 302 302 305 309 306 302 301 301 301 301 300 300 301 301 302 304 305 305 303 301 302 302 302 303 302 302 303 303 303 303 304 304 304 305 305 305 305 306 306 306 306 306 305 306 306 306 306 305 305 305 306 306 306 305 306 306 306 306 306 306 306 305 305 305 305 305 306 306 306 306 306
310 313 314 314 311 311 313 312 309 307 306 305 305 304 302 301 303 307 308 305 301 300 300 299 299 299 300 300 300 301 303 303 303 302 301 301 301 301 302 302 301 302 302 302 302 302 303 303 304 304 303 304 304 304 304 305 305 304 304 304 305 305 304 304 304 305 305 305 304 305 305 305 306 306 305 305 305 305 305 305 306 306 307 308 308 308
311 312 312 311 310 310 311 309 306 306 305 304 303 303 301 303 306 308 307 304 301 300 299 298 298 299 298 299 299 300 300 300 300 300 300 300 300 300 300 301 300 301 301 301 301 301 302 302 302 303 303 303 303 303 303 303 303 303 303 303 303 304 304 304 304 304 304 305 305 305 306 306 306 306 305 305 305 306 306 306 307 307 307 308 308 308
308 310 310 309 308 309 310 308 305 305 304 302 302 302 301 306 309 306 303 301 299 299 299 298 298 299 298 298 298 298 298 299 299 299 299 299 299 299 300 300 300 300 300 300 300 300 300 300 301 301 302 302 303 302 302 302 303 303 303 303 303 303 303 303 304 303 304 304 304 305 305 305 305 305 305 305 305 306 306 305 305 305 305 306 306 306
304 307 308 305 305 307 307 306 306 305 304 301 302 302 301 304 305 303 300 299 298 298 298 298 298 298 298 298 298 298 298 298 298 299 299 299 299 299 299 299 299 300 300 300 300 300 299 300 300 300 300 301 301 301 302 302 302 302 302 302 302 302 302 303 303 304 304 304 304 304 304 304 304 304 304 304 304 304 305 305 304 304 305 305 306 307
302 305 305 303 304 306 305 304 304 304 302 299 300 300 299 299 300 299 299 298 298 298 298 298 298 298 298 298 298 298 298 298 298 299 298 298 299 299 299 299 299 299 299 299 299 299 299 299 299 299 300 300 300 300 301 301 301 302 302 302 302 302 302 303 303 303 304 304 304 304 304 304 304 304 303 304 304 305 305 306 306 306 307 307 307 307
301 301 301 300 301 301 301 301 301 301 299 298 298 298 298 298 298 298 298 298 298 299 298 298 298 298 298 298 298 298 298 298 298 298 298 298 298 298 299 299 298 299 299 299 299 299 299 299 299 299 299 299 299 300 300 300 301 301 301 302 302 302 302 302 303 303 303 304 304 304 304 303 303 303 303 304 304 305 305 306 306 306 307 307 307 306
298 299 300 300 299 299 299 299 298 297 298 298 298 298 298 298 298 298 298 298 299 299 299 299 299 299 298 299 298 298 298 298 298 298 298 298 298 298 298 298 298 298 298 298 298 298 299 299 299 299 299 299 299 300 300 300 301 301 301 301 301 302 302 302 302 303 303 303 303 303 303 303 303 303 303 303 303 304 304 304 304 304 304 305 304 303
299 299 300 301 301 300 299 297 297 297 298 298 298 298 298 298 298 298 298 298 298 299 299 299 299 299 299 299 298 298 298 298 298 298 298 298 298 298 298 298 298 298 298 299 298 298 298 299 299 299 299 299 299 300 300 300 301 301 301 301 301 302 302 302 302 302 302 302 302 302 302 302 302 302 302 303 303 303 303 303 303 303 303 302 302 302
300 300 301 301 301 300 298 297 297 298 297 298 298 298 298 298 298 298 298 298 298 298 298 298 298 298 298 298 298 298 298 298 298 298 298 298 298 298 298 298 298 298 298 299 298 298 298 298 298 298 299 299 299 299 300 300 300 300 300 300 301 301 301 301 301 301 301 301 301 301 301 302 302 302 302 302 302 302 302 303 303 303 303 303 303 303
299 300 299 300 301 300 298 298 298 298 298 298 298 298 298 298 298 298 298 298 298 298 298 298 298 298 298 298 298 297 297 297 297 297 297 297 298 298 298 298 298 298 298 298 299 299 298 298 298 298 299 299 299 299 299 299 300 300 300 300 300 300 300 300 300 300 301 301 301 301 301 301 301 301 301 301 302 302 302 303 303 303 303 302 302 302
299 299 298 300 301 300 298 298 298 299 300 298 297 298 298 298 298 298 297 297 297 297 297 297 297 297 297 297 297 297 297 297 297 297 297 297 297 297 297 297 297 298 298 298 298 298 298 298 298 298 298 298 298 298 299 299 299 299 299 300 300 300 300 300 301 301 301 301 301 301 301 301 301 301 301 302 302 302 303 303 303 302 302 301 301 301
298 298 298 301 301 298 297 298 298 298 298 298 297 298 298 297 298 298 297 297 297 297 297 297 297 297 297 297 297 297 297 297 297 297 297 297 297 296 296 296 297 297 297 297 298 298 298 298 298 298 298 298 299 299 299 299 299 299 299 300 300 300 300 300 301 301 301 301 301 301 301 301 301 301 301 301 301 301 302 301 301 301 301 301 301 301
Wind_Speed
4 2 2 4 6 7 7 7 8 8 8 6 1 2 2 2 5 8 8 5 5 7 1 4 6 2 2 1 4 11 14 13 15 18 19 22 25 29 31 31 32 32 31 31 31 31 31 32 32 31 31 29 27 26 29 31 29 26 25 24 24 24 22 20 19 17 16 15 14 13 13 11 10 10 9 8 6 5 3 1 3 5 5 4 4 6
3 3 6 9 10 10 9 7 7 6 3 1 2 2 3 2 4 8 4 6 4 7 1 1 6 3 4 2 6 15 14 11 17 19 19 25 27 29 32 32 33 32 31 31 30 30 30 31 30 29 31 30 27 27 29 29 28 27 25 23 24 24 22 20 18 17 17 16 14 13 13 12 11 9 8 7 7 5 3 2 4 5 5 5 5 5
1 4 11 13 9 6 6 4 2 2 0 2 2 2 3 3 3 7 6 7 6 5 1 3 2 3 6 3 6 15 13 14 24 28 28 29 26 26 29 32 32 32 32 31 29 30 31 31 30 30 32 30 26 27 27 26 26 27 25 23 23 23 21 19 18 17 16 15 15 14 13 12 11 11 10 9 8 7 6 4 8 8 9 9 7 6
2 6 12 11 7 5 5 4 2 3 2 2 2 1 2 3 1 3 7 8 6 2 1 1 3 3 5 4 4 13 15 17 24 29 31 33 30 29 31 33 35 35 35 33 31 32 33 34 32 31 32 29 26 26 26 24 25 26 26 24 23 22 20 18 17 16 15 15 14 13 12 10 11 12 11 10 9 8 6 7 9 9 11 11 8 6
6 9 8 4 6 8 6 4 3 4 3 3 3 3 3 2 2 4 5 5 6 5 1 4 6 5 3 5 2 6 11 15 19 21 24 28 30 30 31 33 37 38 37 36 35 35 36 37 35 31 32 30 27 27 25 23 25 27 27 25 22 22 20 19 19 17 16 16 15 15 15 13 13 12 9 9 10 9 8 9 9 9 10 9 7 7
9 14 9 3 5 8 7 5 4 5 1 4 4 6 5 3 4 4 4 4 5 6 3 5 4 5 4 3 3 1 3 10 14 16 19 22 22 24 29 32 34 35 37 37 37 37 37 36 34 32 32 30 28 27 24 23 25 27 26 24 23 22 22 21 20 18 16 15 15 16 16 15 14 12 10 11 11 10 9 9 8 8 8 7 6 7
6 12 8 4 3 5 6 4 4 6 5 2 5 7 6 5 3 2 4 4 3 1 4 4 4 4 6 4 6 2 6 8 9 8 11 17 20 23 28 30 31 33 35 36 36 35 35 35 34 33 33 32 29 27 23 23 24 26 25 23 24 24 23 22 20 18 16 16 15 14 13 13 12 12 13 12 11 10 9 9 8 8 7 6 5 6
4 5 5 5 3 5 4 2 5 5 7 3 6 4 4 3 5 5 5 3 1 2 4 5 5 2 4 5 6 1 5 5 8 9 8 13 20 24 27 30 33 35 37 37 36 35 35 35 35 34 34 32 29 27 24 23 25 26 26 24 25 25 24 22 19 18 17 16 15 14 13 11 10 13 15 14 12 11 10 10 9 8 7 7 6 5
2 4 7 7 4 4 3 5 5 5 4 6 7 3 3 3 6 6 6 3 1 2 4 6 2 2 4 6 4 3 2 2 7 10 9 13 21 26 29 33 34 35 36 36 36 35 34 34 34 33 33 31 28 26 24 24 24 25 26 25 25 26 24 22 20 19 19 17 16 15 15 13 13 15 16 15 12 11 11 11 11 10 9 8 8 7
4 8 9 7 5 4 6 6 5 7 3 6 3 1 2 2 3 4 6 3 4 4 2 6 3 1 3 6 5 4 4 4 5 2 7 16 24 27 29 31 31 32 35 35 34 34 34 33 32 31 31 30 28 25 24 24 24 24 25 25 26 26 25 23 22 22 21 20 18 17 17 16 17 18 17 15 13 12 12 12 12 12 11 10 9 8
7 9 7 5 5 7 6 4 4 7 6 2 3 4 5 6 4 3 3 4 4 2 5 6 1 3 1 5 4 1 3 5 3 2 4 12 20 25 27 27 28 32 34 35 34 34 34 33 31 30 30 29 27 25 24 25 25 25 25 26 27 27 27 26 25 24 23 21 20 19 18 19 20 20 18 16 15 14 13 13 13 13 12 11 10 9
6 3 4 3 6 6 5 1 3 1 2 4 4 4 3 4 5 5 5 5 3 3 6 6 0 6 2 4 4 4 7 7 2 5 6 9 14 19 23 24 27 32 33 33 32 32 33 32 31 30 29 29 28 26 25 26 27 27 27 28 27 27 28 28 28 27 24 22 21 20 19 20 21 20 18 16 15 14 13 13 14 14 13 12 11 10
5 2 4 4 3 4 5 1 5 6 5 5 3 5 4 2 4 3 3 2 1 4 5 4 2 3 2 6 5 6 8 7 3 4 9 14 17 19 22 24 26 29 28 28 29 30 30 30 29 28 28 29 28 27 27 27 28 30 30 30 28 27 28 29 29 27 23 21 21 20 19 19 19 18 17 15 14 14 13 13 13 14 14 13 13 12
3 5 5 4 4 2 6 2 2 3 2 3 3 3 4 2 3 1 3 1 1 4 5 4 1 0 3 3 4 6 8 6 5 11 18 21 23 24 22 23 23 22 22 24 26 27 27 27 27 25 26 27 26 27 27 27 30 32 32 30 28 27 27 28 28 26 23 22 21 20 18 17 16 16 16 15 13 13 13 12 12 13 14 14 13 13
1 4 3 1 2 1 4 5 6 4 2 3 4 5 4 4 4 3 3 2 2 3 4 4 1 2 1 3 5 4 11 13 13 17 23 25 24 25 23 20 19 18 19 21 20 20 21 22 23 23 25 26 26 26 26 28 32 28 25 27 26 24 25 27 28 26 24 23 21 19 17 16 14 13 14 15 14 12 12 12 12 12 13 13 13 13
3 3 6 3 2 3 3 4 5 6 2 3 2 6 2 5 5 2 3 5 4 1 3 2 1 3 4 3 3 8 13 14 15 19 23 23 23 24 23 19 19 19 20 21 19 16 15 15 16 18 21 24 26 27 25 28 30 20 15 19 23 22 24 27 29 26 24 24 21 20 19 17 15 13 13 15 15 13 12 11 12 13 13 13 13 13
2 4 6 4 2 2 5 5 4 4 2 1 2 2 3 4 7 4 2 1 4 3 3 1 1 4 2 2 5 8 8 7 10 15 19 21 23 25 22 19 18 18 19 19 18 15 13 12 13 13 14 16 21 25 26 28 28 18 11 15 20 22 25 29 29 25 24 25 22 21 21 18 16 15 14 14 14 14 12 11 10 10 11 11 11 11
4 2 6 3 2 7 7 2 2 3 6 3 1 3 1 2 4 4 2 2 4 2 4 1 1 2 2 1 4 7 7 5 4 7 15 21 25 25 21 19 17 16 16 15 14 13 11 10 10 10 11 11 12 16 20 22 22 17 13 15 18 21 25 30 31 26 26 26 23 23 23 20 18 16 16 15 13 13 13 11 10 9 8 8 7 7
4 0 7 3 0 6 7 4 2 3 3 4 4 3 3 2 0 1 2 1 1 2 3 3 0 1 1 3 2 5 5 5 5 4 7 12 19 24 25 23 21 19 17 16 14 13 13 12 10 9 8 8 9 9 10 11 12 12 12 12 14 17 22 29 30 29 28 27 26 25 24 22 19 16 15 16 14 13 13 12 11 9 8 7 7 6
3 3 4 5 2 3 5 4 2 5 5 3 2 3 2 3 3 1 1 3 3 2 2 1 3 1 3 4 2 3 2 5 7 6 5 7 12 20 24 24 23 21 18 17 16 14 14 13 11 10 7 6 6 7 8 7 7 8 6 6 9 14 20 26 27 29 29 27 28 27 25 23 20 17 16 16 16 14 13 13 12 11 10 9 8 8
3 3 2 6 5 3 2 1 3 2 4 3 3 1 1 2 2 1 1 1 3 4 2 1 1 3 5 3 3 5 5 6 8 7 6 8 13 18 22 22 20 19 17 15 14 13 12 12 10 10 8 6 5 5 6 6 5 5 4 5 6 9 17 22 24 28 29 27 27 26 24 23 21 20 18 17 17 17 14 14 14 13 13 11 10 10
2 2 2 2 4 2 2 2 2 1 3 2 2 3 3 3 3 3 1 2 2 4 3 4 2 5 5 1 3 5 6 7 11 12 10 11 16 18 20 20 18 17 16 13 11 10 9 9 9 9 8 7 6 5 6 6 6 5 4 4 4 7 13 19 22 25 26 26 27 25 23 23 22 22 20 18 19 20 18 17 16 15 15 14 12 12
3 4 3 1 1 3 5 3 2 2 1 2 1 0 2 3 4 5 2 3 1 2 2 4 2 5 5 2 3 5 6 7 12 17 14 14 17 18 19 19 17 16 15 12 11 9 9 10 10 11 10 9 9 7 7 6 6 7 5 4 5 8 12 15 17 20 23 25 26 25 23 22 23 23 21 20 21 21 20 20 19 16 16 15 14 13
2 4 3 2 4 4 5 2 3 5 6 5 3 3 4 2 2 5 5 4 3 1 1 3 1 4 5 2 1 5 9 11 13 17 19 17 18 20 20 18 16 15 14 12 10 8 9 10 10 11 11 11 11 10 10 10 9 8 7 5 7 9 12 13 13 17 21 24 25 26 26 25 25 24 23 22 22 21 20 20 19 18 18 18 17 15
1 1 3 3 4 5 6 6 5 6 5 3 3 4 5 4 4 2 1 3 3 2 4 5 2 4 4 3 5 8 11 11 11 16 21 21 20 21 19 16 15 15 14 13 11 9 9 9 8 9 10 10 12 12 13 14 13 12 11 10 10 10 11 12 13 16 21 25 27 27 26 26 25 24 24 24 23 21 20 18 19 21 22 20 19 18
3 2 3 5 3 1 1 1 2 3 3 2 3 5 5 6 6 3 2 4 2 2 4 5 4 4 4 5 6 8 9 9 9 14 19 21 21 20 18 17 16 15 15 14 13 12 11 10 8 8 8 8 9 11 13 14 14 15 15 15 14 13 12 12 13 15 19 23 26 25 23 22 22 21 21 20 19 19 19 19 20 23 23 22 20 20
4 2 3 6 6 5 5 4 3 1 2 3 5 7 5 4 4 5 4 2 2 2 2 2 5 3 2 3 3 6 8 8 8 12 17 20 21 20 18 18 18 17 17 16 15 15 13 12 11 10 9 9 9 10 12 13 15 16 17 17 16 15 14 13 13 14 16 19 21 21 20 20 20 20 19 17 16 18 19 21 23 25 24 22 20 20
5 2 1 5 4 5 5 3 2 2 2 3 5 6 5 4 5 7 4 0 2 4 2 4 2 6 3 2 3 4 5 7 7 10 16 21 22 21 20 20 18 18 18 17 17 16 15 15 14 12 12 10 10 12 13 14 15 16 17 17 15 14 13 12 12 12 13 15 16 18 19 18 18 17 17 17 18 19 19 20 22 23 21 20 19 20
5 1 1 3 3 2 2 2 4 5 4 3 5 4 4 5 6 6 2 1 4 5 3 5 3 5 1 2 2 2 3 6 6 6 10 14 14 16 18 20 22 21 21 20 20 19 18 17 15 15 14 11 10 11 11 11 13 14 16 17 16 15 13 11 11 10 10 10 10 12 14 13 12 12 13 13 13 12 11 11 12 12 12 13 14 14
4 1 1 3 4 3 4 5 7 7 5 4 3 1 0 3 6 5 2 2 6 5 2 3 8 7 3 4 4 4 9 14 14 11 11 10 7 6 8 11 16 20 22 23 23 22 20 19 18 17 17 15 13 12 10 9 9 11 14 15 14 14 13 12 11 10 10 8 8 8 9 9 8 8 8 8 7 7 6 6 5 5 5 5 6 6
4 1 1 4 4 3 4 6 7 7 6 5 4 3 1 3 4 4 3 3 6 5 3 7 10 6 5 5 6 7 13 19 19 17 17 17 13 8 6 3 8 13 18 22 24 23 21 21 21 20 19 19 17 14 12 10 8 8 10 10 11 11 11 10 10 11 11 10 9 9 8 8 7 6 7 7 6 7 7 6 6 6 5 5 5 5
4 1 1 5 4 3 3 5 5 5 7 6 6 8 6 5 5 4 3 3 3 5 4 8 7 1 5 5 8 11 16 19 17 17 18 19 17 14 12 8 4 13 17 19 21 21 19 19 20 20 19 18 17 15 13 11 9 8 7 6 5 5 6 6 7 9 10 10 10 10 9 8 7 7 6 6 6 6 6 5 6 6 6 6 6 6
3 3 1 4 3 4 3 4 5 5 7 4 4 5 5 2 7 7 6 7 4 5 5 4 2 3 4 3 8 10 13 15 15 17 18 18 19 17 15 12 6 9 15 16 18 18 17 16 15 16 16 16 15 14 12 11 10 8 6 4 4 5 6 6 6 6 7 8 8 9 8 8 9 8 8 7 7 7 7 7 6 6 7 7 8 8
2 5 3 2 3 3 4 3 5 4 2 3 5 4 2 6 12 11 7 8 8 5 5 4 1 2 3 5 8 8 10 13 18 22 22 21 23 23 20 17 12 10 12 13 13 13 13 13 12 12 12 12 12 12 12 11 9 7 5 4 4 5 5 6 5 4 5 5 5 5 5 6 7 8 8 8 8 8 8 8 8 8 8 8 8 8
3 5 2 2 4 2 1 5 4 2 5 5 4 3 6 12 15 15 10 9 10 7 6 6 5 5 6 7 8 11 15 19 24 28 26 24 24 24 23 21 18 15 14 14 14 14 14 12 11 10 10 10 9 9 10 10 9 8 7 7 6 6 5 5 4 3 4 3 2 3 4 4 5 6 7 8 8 8 8 8 8 8 7 7 7 7
5 5 3 2 3 2 1 4 3 5 4 1 4 5 6 7 8 11 11 10 9 6 5 5 6 6 10 12 8 11 16 22 27 28 27 23 23 24 23 21 19 17 14 12 12 13 14 12 11 9 7 6 7 8 8 10 10 10 10 9 8 7 7 6 5 3 2 2 2 3 4 4 4 5 6 7 7 7 8 9 9 8 7 7 7 8
7 4 3 2 2 3 4 2 2 2 2 2 4 3 2 2 2 4 6 4 6 7 6 4 5 7 11 15 10 6 10 18 19 20 22 21 20 21 22 20 18 16 14 11 7 8 8 4 2 2 2 3 5 7 7 6 5 6 8 9 9 8 7 7 6 5 4 4 3 4 4 5 5 5 5 6 6 7 8 8 8 9 10 11 11 12
6 4 5 5 2 3 5 2 1 2 4 3 3 5 5 6 3 5 6 3 4 9 9 5 5 8 9 14 14 7 7 10 7 9 17 19 16 16 18 17 17 15 13 11 9 6 5 1 3 3 6 9 8 4 2 1 2 2 5 7 8 8 8 8 8 7 6 5 5 5 6 6 7 7 7 8 8 8 9 9 10 11 12 14 15 15
5 2 4 4 2 3 5 3 3 4 4 4 5 8 12 13 5 4 6 3 4 9 11 7 7 10 9 11 15 13 9 5 2 7 14 16 14 14 13 13 14 14 12 11 9 7 5 2 4 4 1 5 6 7 8 8 5 3 5 7 8 9 10 10 10 10 9 8 9 9 9 9 10 11 11 12 12 12 13 13 14 15 15 16 17 17
7 4 3 4 2 2 3 3 1 2 1 3 5 8 15 16 7 4 4 1 5 9 11 10 11 13 13 14 15 11 6 3 2 8 13 12 10 11 11 11 12 12 11 10 9 8 7 5 3 2 3 4 4 4 6 8 8 7 7 7 8 10 10 9 10 11 11 12 12 12 12 13 13 13 14 14 14 14 14 14 15 16 15 15 15 17
4 3 3 3 3 2 3 3 2 0 1 3 6 11 15 11 5 4 4 5 4 7 13 16 15 15 16 17 15 9 6 7 8 10 12 10 10 10 10 10 10 9 9 10 9 8 8 8 9 9 8 7 7 7 7 8 9 10 10 9 8 9 10 10 11 11 11 13 13 14 15 15 15 15 15 15 15 15 15 15 15 16 16 16 16 17
3 3 3 2 2 2 2 3 2 1 1 5 7 11 12 5 2 2 3 0 5 9 13 16 16 15 15 15 14 11 11 12 12 12 12 11 12 12 11 11 10 10 10 9 9 10 10 11 12 12 11 10 10 11 10 11 13 13 13 12 10 9 9 10 11 11 13 15 16 17 17 17 16 15 15 16 17 18 19 19 19 20 19 19 19 19
1 1 2 2 1 2 2 3 3 1 3 7 7 8 9 5 2 2 5 9 11 11 12 13 13 13 13 12 12 12 12 12 13 13 13 13 13 13 13 13 12 12 13 12 12 12 12 12 13 13 12 12 13 15 15 16 16 16 16 16 15 13 12 11 11 12 14 16 17 18 19 18 17 17 18 19 20 21 21 21 21 21 20 19 19 18
2 1 1 1 1 2 2 2 1 3 4 10 9 6 7 10 11 11 11 10 10 11 11 10 10 11 12 12 12 13 13 14 14 15 15 15 15 16 16 16 16 16 15 15 15 15 14 15 15 15 14 14 14 15 16 18 19 18 17 18 18 16 14 13 13 14 15 15 16 17 18 19 20 21 21 20 20 20 19 18 18 18 18 18 18 18
3 1 3 3 3 3 3 1 1 1 10 18 18 14 13 15 16 14 12 10 10 10 10 9 9 10 11 12 13 14 14 16 16 17 18 19 18 18 19 19 19 19 19 18 18 17 17 17 16 16 16 15 14 15 16 17 18 18 17 18 18 16 14 13 14 15 16 16 16 17 18 19 20 20 20 20 20 21 20 20 20 20 19 20 21 22
4 5 6 4 3 4 6 6 5 9 15 18 17 16 17 16 15 13 11 10 9 8 9 9 9 9 11 11 13 13 14 15 17 18 19 20 21 21 21 22 22 22 23 23 22 22 22 21 21 20 18 14 11 12 14 14 14 16 16 17 18 17 16 16 16 16 17 17 17 17 18 19 19 20 21 22 23 24 25 25 26 26 26 26 25 25
4 7 6 3 1 3 3 6 6 7 13 17 18 17 17 16 14 12 10 9 8 7 8 10 10 11 12 13 14 15 15 15 16 17 18 19 21 22 22 22 23 23 24 24 25 25 25 25 25 25 23 18 11 9 10 10 11 12 13 14 15 17 18 19 20 20 20 21 21 21 22 22 23 24 24 25 26 27 28 29 29 29 28 27 24 23
2 4 3 2 3 3 4 2 4 3 8 16 18 14 15 14 12 10 9 9 9 9 10 11 12 13 14 14 14 15 16 17 17 18 19 19 20 20 20 21 22 22 22 22 22 23 25 26 27 27 26 24 19 14 12 12 12 13 14 14 15 16 17 18 19 20 21 22 22 24 25 26 26 27 27 28 29 30 30 29 28 28 26 25 23 22
1 2 1 2 4 3 1 3 7 2 3 12 15 12 11 12 10 11 11 11 11 12 12 12 12 12 13 14 14 15 16 17 18 18 19 20 21 21 22 22 22 22 21 20 20 20 22 24 26 27 28 28 25 22 20 17 16 17 19 19 19 19 19 20 20 20 20 21 21 23 24 25 26 27 28 29 30 31 31 30 29 29 28 28 28 27
3 2 1 3 4 2 2 3 4 1 2 8 13 12 10 10 9 11 12 12 11 11 12 14 14 13 14 14 15 16 17 18 18 19 20 21 22 22 23 24 24 24 23 23 22 22 23 23 25 27 28 30 28 25 24 23 21 21 21 21 21 20 20 20 20 19 19 20 21 22 23 25 26 27 29 31 31 32 33 33 33 33 34 32 29 26
7 3 3 4 4 2 3 2 2 2 2 6 10 10 9 8 10 11 11 10 10 11 12 13 14 15 16 15 15 15 16 18 19 20 21 22 23 23 23 23 23 24 24 24 24 25 25 26 26 27 27 26 24 22 21 22 23 23 23 22 21 20 19 19 19 19 20 21 22 23 25 27 29 30 31 32 33 33 34 35 36 37 35 30 25 22
Wind_Direction
182 195 260 223 224 228 232 207 207 235 232 233 184 144 232 287 302 305 318 319 120 115 195 165 122 80 296 275 166 165 158 148 146 145 151 163 169 169 169 172 175 175 173 172 174 176 178 181 181 183 187 186 184 179 175 181 192 197 199 200 199 199 201 200 197 195 192 190 191 188 182 180 182 185 182 174 169 172 178 254 251 230 220 206 195 189
140 189 242 229 221 218 229 227 215 231 241 284 64 35 318 329 298 293 308 341 48 100 315 229 123 171 242 234 155 148 148 163 159 152 165 175 175 172 170 174 178 178 175 173 177 180 182 185 184 184 185 186 184 178 181 194 202 204 207 202 196 195 196 197 194 190 188 187 185 181 177 178 182 193 205 194 177 188 214 209 189 191 191 194 204 197
94 227 245 235 223 217 244 251 206 213 89 357 3 40 321 295 300 300 310 347 28 93 265 278 124 235 269 300 146 151 159 177 170 168 177 179 174 170 170 174 176 177 176 178 181 182 185 187 184 184 187 186 184 182 191 204 208 208 205 197 192 191 189 188 187 183 179 173 170 170 171 178 181 184 200 213 212 225 240 187 154 148 153 169 184 186
227 237 245 237 202 175 241 241 118 50 35 330 324 55 282 267 77 309 313 338 357 45 192 326 25 311 298 353 115 159 172 178 177 180 181 178 175 174 175 176 176 176 176 178 180 179 183 185 183 184 185 182 183 190 199 206 209 206 199 193 191 187 182 179 176 172 168 160 159 164 166 170 177 178 191 209 215 221 214 171 157 149 149 161 168 172
242 254 268 260 191 175 206 227 133 73 4 299 252 214 243 261 198 239 283 324 345 342 27 67 19 331 351 25 61 160 171 177 182 187 186 183 180 178 178 178 179 178 176 175 175 177 181 184 186 185 182 182 189 199 205 208 208 201 194 192 188 182 176 172 169 167 165 160 161 171 172 169 173 176 186 191 183 180 174 164 161 158 158 164 162 165
256 259 266 277 204 179 179 211 180 132 73 313 262 220 216 208 223 267 320 8 30 350 323 74 47 300 336 12 285 331 148 186 189 190 191 187 182 178 177 179 181 179 175 173 174 177 181 185 187 185 183 188 196 204 209 210 206 199 195 191 185 179 174 173 172 168 170 170 173 180 179 178 179 175 175 174 164 159 161 160 160 159 163 168 166 176
257 248 223 175 168 146 149 198 207 142 114 300 250 205 184 148 130 53 31 49 80 280 286 72 111 260 322 328 274 245 152 188 207 213 200 185 180 180 179 178 179 178 174 175 177 180 181 184 187 186 188 195 200 205 209 209 205 200 197 191 184 180 178 180 179 175 179 183 187 191 187 187 184 170 163 162 154 149 152 154 159 165 169 177 183 194
261 240 171 136 111 97 108 212 226 147 117 227 252 196 166 117 111 119 90 80 201 236 320 15 101 167 301 282 266 224 143 182 212 219 211 188 182 180 179 180 180 178 176 177 179 182 183 186 190 189 191 198 202 205 208 207 204 202 199 193 187 183 183 186 184 183 188 193 196 197 194 194 187 170 160 154 150 147 147 146 150 158 162 170 177 185
244 202 181 154 121 110 176 223 209 137 123 240 248 208 187 159 145 135 100 80 23 46 334 324 41 108 280 278 297 5 46 281 224 199 185 189 186 179 180 183 182 179 178 179 181 184 188 191 193 194 195 199 203 206 209 208 205 204 201 194 188 186 187 190 189 188 192 197 202 200 198 198 189 173 159 152 151 148 145 142 141 144 145 148 150 150
261 228 200 145 128 183 218 225 176 140 198 247 220 123 21 52 93 90 90 87 43 58 255 283 333 99 269 292 317 7 23 316 271 195 161 181 183 180 180 180 179 176 176 181 185 188 192 194 196 199 200 201 203 206 208 208 206 205 203 198 193 191 189 191 193 193 195 199 202 202 204 201 187 172 160 155 156 152 148 143 139 138 136 135 134 130
281 258 215 142 169 197 193 217 188 165 191 192 76 49 21 14 17 40 68 78 61 25 253 257 270 106 283 293 285 304 319 285 262 68 134 168 171 176 177 175 174 176 179 184 189 192 194 196 199 203 204 203 202 205 209 211 210 209 207 202 199 197 193 192 196 198 198 200 204 205 208 202 185 171 164 160 160 159 153 144 138 136 131 129 127 124
322 284 223 206 206 178 137 224 289 302 140 106 75 61 43 349 5 17 4 42 77 260 258 258 296 95 119 275 277 276 293 294 227 151 152 150 148 159 167 167 171 178 184 187 189 193 196 197 200 204 206 206 204 206 211 215 215 216 216 212 205 201 196 193 197 202 202 200 202 205 206 198 183 173 169 165 162 161 154 146 141 138 136 132 129 127
341 257 262 302 253 151 108 328 322 348 30 81 86 73 74 360 13 16 333 18 193 246 256 274 349 80 208 248 269 299 314 316 314 124 131 134 130 135 150 161 171 180 184 186 189 194 197 199 201 204 207 208 209 211 213 217 221 222 220 213 204 200 198 197 199 202 204 200 198 199 198 192 182 176 175 169 166 164 157 152 146 141 139 136 131 129
336 308 319 345 306 158 120 127 281 311 21 117 147 115 110 102 66 308 278 325 259 262 278 294 353 354 295 263 258 312 349 15 57 89 105 116 119 123 139 156 168 177 180 183 189 195 200 202 203 206 208 211 214 217 218 220 221 219 211 201 193 189 192 199 204 204 202 197 194 196 193 189 185 184 183 178 174 171 168 162 152 142 138 134 130 128
104 315 296 206 275 214 143 169 181 164 129 185 169 128 138 148 140 200 214 192 226 264 293 315 38 165 201 249 258 2 44 59 67 82 95 101 106 114 125 139 153 163 168 172 178 186 195 202 207 210 214 216 218 221 223 220 218 214 204 200 200 194 193 202 208 209 201 190 189 195 195 195 198 202 197 188 182 182 181 172 161 150 142 136 132 127
129 247 255 257 237 175 180 205 166 115 64 268 132 93 154 182 151 162 176 175 175 167 302 306 240 211 191 245 314 63 72 72 74 77 82 87 93 99 101 110 126 139 148 156 162 169 179 190 201 210 217 218 218 220 222 218 218 212 195 205 216 212 207 207 207 206 197 186 186 194 198 200 207 217 215 199 190 192 191 182 172 160 150 144 138 132
118 255 274 318 339 221 221 208 160 122 139 287 55 105 235 174 127 121 185 195 95 102 277 258 229 299 333 329 358 54 75 77 93 101 98 96 93 89 86 91 103 115 126 140 151 161 171 180 190 201 211 215 217 220 220 219 222 221 208 215 222 219 214 209 204 202 195 187 186 193 197 201 205 215 224 212 199 198 196 190 184 172 162 156 148 141
140 260 288 338 7 302 286 210 150 134 133 114 154 203 234 65 89 107 127 360 48 121 268 294 168 310 25 266 340 42 72 60 57 113 120 116 112 108 107 107 106 106 112 124 137 146 153 162 173 181 189 193 200 212 218 222 228 235 234 226 224 225 223 217 210 204 198 190 187 193 198 200 202 209 221 221 213 209 203 196 192 189 185 176 166 157
117 82 294 304 312 309 333 51 29 340 84 124 170 163 90 87 19 40 119 161 113 185 276 325 350 114 147 242 331 44 84 89 59 67 105 116 121 123 125 126 128 128 128 129 128 128 129 128 131 139 153 168 172 180 195 210 224 236 239 233 230 228 225 222 214 204 199 192 187 193 198 201 207 212 216 220 221 217 210 204 201 200 201 199 197 195
100 112 274 297 314 331 359 46 36 337 343 19 58 42 51 133 161 160 149 157 146 170 228 320 1 320 236 237 148 105 109 110 102 84 79 98 114 122 126 129 131 131 130 127 121 117 116 113 112 112 119 141 157 167 171 179 203 220 221 205 213 222 219 219 212 202 202 196 186 189 195 200 208 211 211 219 224 221 215 212 211 210 212 214 213 211
60 89 222 291 332 26 24 28 61 12 320 348 20 359 22 82 105 118 74 93 121 135 168 127 24 275 249 228 169 165 144 124 124 114 100 110 117 121 125 126 127 126 123 120 118 115 109 104 102 102 106 121 142 164 162 155 173 200 194 158 176 218 212 203 199 199 203 200 189 189 193 197 203 209 212 219 224 226 223 220 220 220 220 221 219 216
73 108 171 297 346 40 236 249 49 337 242 191 185 215 165 120 111 109 9 317 97 129 160 146 157 267 260 193 189 189 164 146 138 131 125 124 125 125 125 125 126 128 128 124 119 116 110 106 104 108 113 123 137 149 147 145 149 156 171 170 176 209 197 183 184 191 198 200 194 191 194 198 202 209 212 213 218 225 226 223 222 221 224 228 227 223
115 103 93 329 260 233 251 233 93 9 310 120 125 145 97 105 114 122 179 256 34 94 135 114 119 264 265 227 209 200 170 143 130 128 125 124 128 128 124 119 118 124 131 130 125 118 112 108 110 118 123 121 123 126 125 130 135 133 138 160 179 195 188 180 181 185 193 199 197 195 198 202 204 206 208 207 211 219 221 218 218 219 223 229 230 229
71 82 65 325 294 303 308 334 60 34 40 52 8 18 37 3 129 138 170 175 128 133 144 103 114 258 280 306 147 135 116 107 112 120 121 119 123 124 121 119 120 126 132 135 136 129 120 118 118 121 123 119 116 117 116 116 118 123 125 128 145 162 166 171 180 185 194 201 199 198 202 204 204 204 206 207 209 214 212 209 213 218 220 224 227 229
59 104 91 55 4 350 344 352 6 7 26 47 317 349 24 14 23 51 94 85 90 186 149 122 173 242 286 353 86 95 91 92 105 120 124 125 126 127 127 128 132 135 138 141 144 141 136 136 132 124 121 117 113 111 113 114 114 116 116 116 125 138 147 162 176 184 194 201 202 202 203 203 204 205 208 211 213 215 214 213 220 223 223 224 228 232
116 131 109 109 123 135 283 285 305 327 344 345 325 346 15 32 37 45 58 64 88 206 110 115 186 239 314 8 85 105 101 99 109 122 128 132 136 138 139 140 143 144 144 146 147 146 144 142 141 136 131 124 118 116 115 115 117 120 122 124 130 137 147 164 178 184 192 199 204 208 209 210 215 217 219 223 224 226 229 234 238 239 237 235 234 235
94 77 104 125 149 173 186 217 242 303 8 335 332 349 6 21 46 81 85 75 171 149 72 180 183 136 24 10 87 119 123 127 139 144 144 146 148 151 152 153 154 153 152 153 151 148 143 139 138 136 134 129 123 123 124 122 122 124 126 128 133 139 146 160 175 184 193 201 206 211 214 218 224 227 228 233 236 237 241 244 245 246 246 242 237 238
86 44 102 119 135 179 185 216 304 42 58 356 348 357 9 22 47 72 69 346 160 93 360 263 160 116 155 197 136 152 161 155 158 157 157 158 158 159 160 159 159 161 164 166 165 161 152 144 140 136 133 129 121 121 125 127 129 130 130 130 133 137 139 147 159 168 182 197 206 212 218 223 227 231 235 241 244 243 245 247 245 245 246 246 245 247
106 98 201 119 100 126 117 50 32 55 70 54 35 14 6 40 70 87 81 194 131 117 214 233 115 102 192 305 52 101 142 136 136 144 151 154 158 162 161 158 159 162 166 168 169 169 165 158 152 148 144 141 137 132 127 127 131 134 135 134 135 136 135 138 146 148 153 166 180 195 208 213 215 221 227 232 235 233 234 238 239 238 240 245 248 250
97 143 211 106 77 31 32 49 53 52 49 45 44 9 260 96 104 114 111 76 91 95 161 137 91 72 12 344 357 36 78 92 98 100 98 94 106 146 160 164 166 163 162 164 163 162 164 164 162 160 158 155 152 148 143 141 140 140 142 141 139 139 139 143 148 145 143 145 149 158 172 178 180 188 195 196 198 198 201 203 203 203 209 217 227 234
70 158 229 87 69 341 354 54 58 59 65 46 6 342 23 92 80 71 41 39 71 76 58 75 79 54 357 359 11 46 71 75 74 73 70 68 73 90 102 148 196 187 173 166 162 158 157 159 159 159 160 159 158 156 153 151 149 145 144 143 143 145 147 152 159 159 156 157 161 163 166 170 175 184 190 192 196 200 201 203 206 209 209 210 218 227
76 106 356 69 74 292 313 55 48 49 64 48 8 351 359 44 67 59 29 29 104 132 83 60 72 338 304 358 43 58 65 65 61 57 58 60 64 72 80 88 175 204 191 172 165 162 158 156 157 157 157 158 160 161 162 162 159 151 143 140 149 161 159 156 165 173 173 171 172 174 174 176 184 191 197 204 209 210 210 214 219 223 227 230 235 241
106 109 90 90 101 271 288 69 66 49 40 13 321 314 313 63 87 68 27 13 40 116 109 94 140 242 281 25 68 62 57 61 61 54 52 58 65 70 75 75 102 186 183 170 166 164 159 155 154 154 156 159 163 164 165 166 165 161 158 161 179 176 152 131 126 149 168 173 176 180 184 191 199 203 206 212 220 226 230 233 236 242 247 252 256 258
107 113 141 130 120 248 277 55 61 45 36 252 262 284 256 114 94 79 45 16 23 54 94 118 142 318 358 57 84 86 77 75 69 60 58 62 68 73 74 73 88 126 143 151 155 153 155 159 152 143 143 148 155 160 158 156 157 160 159 159 173 171 151 133 124 126 139 153 172 193 203 207 206 208 212 219 227 235 240 243 246 251 256 259 264 268
139 127 151 125 120 189 293 55 58 258 218 216 269 7 86 104 96 86 64 31 25 32 49 53 27 2 17 43 85 101 91 80 69 59 58 63 65 68 68 68 78 98 113 126 130 122 121 130 133 130 129 132 138 143 143 143 145 154 158 155 159 166 165 166 158 134 132 149 175 220 237 235 218 213 221 232 239 241 242 246 249 253 256 259 264 274
148 148 159 139 125 150 99 86 149 227 235 270 342 16 73 85 76 74 58 26 13 14 26 33 10 358 15 32 73 111 92 76 66 56 54 59 58 58 63 66 71 82 92 107 128 131 122 113 110 107 106 121 128 127 137 147 151 157 162 164 169 169 168 172 173 168 185 206 215 222 234 241 232 220 221 232 245 254 260 265 267 270 277 281 281 282
147 142 156 179 180 139 141 159 183 237 284 355 348 339 40 7 338 107 94 44 7 6 14 32 14 4 18 30 47 115 96 71 60 44 43 49 49 52 59 62 65 73 77 81 111 149 149 140 122 74 314 245 161 126 119 130 150 167 171 176 186 188 183 183 187 195 218 237 236 224 230 240 242 236 234 238 250 262 269 272 275 280 287 291 290 289
151 163 170 182 201 113 117 141 141 185 221 239 288 292 308 324 290 155 116 65 350 357 11 40 27 10 20 30 33 52 79 67 43 12 26 33 33 43 50 51 54 61 63 64 76 102 109 142 212 228 269 264 247 234 225 151 127 187 202 207 216 217 217 220 217 214 228 248 255 256 256 253 250 251 252 253 256 261 266 269 271 275 278 280 282 282
60 91 128 141 161 118 120 142 169 184 214 245 269 296 323 333 326 135 98 47 321 342 4 39 39 22 27 36 39 49 63 62 330 342 14 20 19 26 29 28 38 46 45 44 48 51 48 59 177 172 267 299 283 271 253 233 227 253 244 239 245 246 244 242 233 229 242 258 266 270 270 266 265 265 265 268 270 272 272 272 273 273 274 276 277 275
27 31 63 81 90 119 128 125 139 165 215 273 270 304 327 335 353 107 129 270 311 343 14 51 53 39 39 42 44 53 64 63 341 354 10 15 14 19 17 11 17 23 24 25 21 12 4 349 305 267 309 306 279 278 269 249 248 261 260 253 255 256 259 261 252 247 255 264 269 271 271 271 270 270 273 278 279 276 270 268 271 273 275 277 276 275
15 13 39 74 72 54 95 101 92 163 302 289 293 321 331 338 28 95 189 235 309 10 44 55 51 42 39 38 40 39 25 19 9 360 2 2 359 4 6 359 354 355 360 2 359 353 347 339 330 317 304 287 271 279 287 273 262 258 256 254 253 253 260 268 268 267 267 267 267 266 266 269 271 272 276 279 278 274 268 268 271 273 274 275 275 277
8 358 19 46 37 25 90 112 92 72 303 283 301 347 5 21 126 180 201 97 34 44 51 47 42 37 31 28 26 16 4 3 0 354 352 347 344 345 345 342 334 328 329 330 331 336 331 325 323 315 302 294 287 284 284 282 277 271 266 266 264 261 265 269 269 270 267 265 264 264 266 270 271 270 271 272 272 271 269 271 273 273 274 274 275 279
9 35 35 12 7 39 65 67 84 132 311 314 318 359 26 52 147 157 100 71 53 46 41 35 33 27 16 10 7 358 349 345 341 339 336 330 326 323 323 327 325 316 313 312 313 319 317 310 308 303 296 294 293 291 288 284 281 279 274 270 266 263 262 260 256 256 257 258 260 263 266 268 268 269 272 275 276 273 270 270 270 270 271 271 271 275
3 42 90 342 347 63 73 53 176 222 357 27 50 72 62 56 57 65 71 61 46 38 28 18 16 10 359 352 346 337 332 330 325 325 324 319 315 312 308 310 313 310 307 304 303 307 307 303 299 296 292 292 292 290 286 280 279 280 276 269 266 265 258 248 241 242 245 249 255 260 264 267 270 274 276 277 275 271 266 263 261 261 263 264 266 271
350 35 106 82 50 85 109 126 246 42 52 58 67 69 59 53 49 51 54 48 38 30 16 3 358 353 342 336 330 323 319 316 312 311 312 310 307 306 301 298 299 301 300 299 297 297 297 297 297 295 295 296 296 294 290 280 273 272 270 267 268 267 258 245 241 242 244 247 254 260 264 268 271 272 272 271 271 269 265 264 264 264 263 263 267 271
14 49 82 98 103 88 63 30 33 62 59 53 51 46 43 43 38 35 39 40 33 21 5 355 350 344 336 330 325 319 314 312 307 304 303 303 302 301 298 294 291 290 291 292 293 293 292 291 291 291 294 302 312 315 307 287 265 257 256 257 259 260 255 251 251 252 254 257 260 264 267 269 270 271 270 270 270 270 270 271 272 273 273 272 272 272
20 49 68 90 115 102 56 2 9 66 59 40 33 28 27 32 33 29 28 25 15 4 354 347 341 335 332 328 324 320 317 315 314 310 306 304 301 299 297 296 293 291 290 290 291 293 291 289 288 288 288 289 296 313 311 290 266 255 252 249 250 252 252 254 257 259 261 263 266 269 271 273 274 274 274 273 273 275 277 277 277 277 277 276 275 272
350 34 60 73 51 106 152 313 344 91 68 42 38 29 19 22 22 15 9 360 349 343 337 333 330 326 325 324 321 318 315 312 312 310 306 304 302 300 299 298 296 294 292 290 290 289 286 285 284 285 285 283 279 278 283 284 280 275 270 265 262 261 261 263 265 266 267 268 268 269 271 272 274 276 277 278 278 279 280 280 277 274 273 272 271 269
39 21 56 100 52 56 154 347 360 31 44 27 34 35 23 16 6 356 353 344 338 334 327 324 324 321 320 319 315 311 308 306 305 303 301 300 299 299 298 297 296 294 291 289 288 287 286 285 284 283 283 282 279 275 272 272 274 277 278 276 274 273 274 274 275 275 273 271 270 270 271 274 276 279 280 280 280 280 279 278 274 271 271 271 270 268
66 46 41 83 63 33 245 304 3 47 269 346 8 14 10 5 356 350 349 344 339 333 325 322 319 312 308 308 307 305 303 300 298 297 295 294 294 294 293 292 290 289 287 287 287 286 285 286 286 286 285 285 284 281 275 270 270 273 276 275 274 274 273 273 276 277 276 274 274 275 277 278 279 279 279 278 278 276 275 274 273 272 272 272 270 267
85 102 99 120 146 183 226 257 38 100 246 325 348 353 351 347 341 340 342 340 332 325 319 318 315 310 306 302 300 299 297 295 294 295 293 292 291 292 291 290 288 286 286 286 286 286 286 285 284 286 288 289 288 284 276 271 270 270 271 270 270 270 269 269 272 274 274 275 276 278 279 280 279 278 277 275 274 273 271 270 270 270 270 268 264 259